User: anonymous   Login
Location: LDNL
(36.4545°S, 141.6685°E)
Time: 12:46:07
(UTC+10:00)
Language:

YUBILEINY - Orbit

View from above orbital plane
View from above orbital plane
View from above satellite
View from above satellite

Ground track
Ground track

The orbit data is extracted from the following two-line orbital elements,

1 32953U 08025A   22138.76109631  .00000021  00000-0  80971-4 0  9998
2 32953  82.5062 202.3927 0018303 328.2861  31.7114 12.43109784634646
Epoch (UTC): 18 May 2022 18:15:58
Eccentricity: 0.0018303
inclination: 82.5062°
perigee height: 1479 km
apogee height: 1508 km
right ascension of ascending node: 202.3927°
argument of perigee: 328.2861°
revolutions per day: 12.43109784
mean anomaly at epoch: 31.7114°
orbit number at epoch: 63464

The dashed part of the orbit path shows where the satellite is in the earth's shadow,  

DLR